Location: Newark
(43.0000°N, 1.6781°W)
Time: 02:00:01
(UTC+00:00)

Vanguard 1 Rocket - Pass Details

Date: 26 April 2021
Orbit: 652 x 4224 km, 34.3° (Epoch: 06 May)

Event Time Altitude Azimuth Distance (km) Brightness Sun altitude
Rises 15:07:32 0° 263° (W) 3,651 11.3 41.1°
Reaches altitude 10° 15:10:52 10° 251° (WSW) 2,381 10.8 40.5°
Maximum altitude 15:14:59 24° 196° (SSW) 1,380 9.1 39.8°
Drops below altitude 10° 15:18:35 10° 140° (SE) 2,046 9.2 39.2°
Sets 15:21:12 0° 126° (SE) 3,014 9.8 38.8°
